This is the latest recevied weather packets stored in our database for station/object K8BCO. If no packets are shown the sender has not sent any weather packets the latest 10 day(s).
| Time | Temp. | Humidity | Pressure | Rain* | Wind** | Luminosity | Snow |
|---|---|---|---|---|---|---|---|
| 1777691118 | -1.11° C | 77% | 1018.3 hPa | 0 mm | - | 0 W/m² | - |
| 1777690519 | -1.11° C | 77% | 1018.3 hPa | 0 mm | - | 0 W/m² | - |
| 1777689917 | -1.11° C | 75% | 1018.4 hPa | 0 mm | - | 0 W/m² | - |
| 1777689317 | -1.11° C | 74% | 1018.4 hPa | 0 mm | - | 0 W/m² | - |
| 1777688718 | -1.11° C | 74% | 1018.4 hPa | 0 mm | - | 0 W/m² | - |
| 1777688118 | -0.56° C | 73% | 1018.4 hPa | 0 mm | - | 0 W/m² | - |
| 1777687518 | -0.56° C | 71% | 1018.3 hPa | 0 mm | - | 0 W/m² | - |
| 1777686918 | 0° C | 70% | 1018.3 hPa | 0 mm | - | 0 W/m² | - |
| 1777686318 | 0° C | 70% | 1018.3 hPa | 0 mm | - | 0 W/m² | - |
| 1777685718 | 0.56° C | 69% | 1018.3 hPa | 0 mm | - | 0 W/m² | - |
| 1777685116 | 1.11° C | 65% | 1018.3 hPa | 0 mm | - | 0 W/m² | - |
| 1777684516 | 1.67° C | 62% | 1018.2 hPa | 0 mm | - | 1 W/m² | - |
| 1777683923 | 2.22° C | 59% | 1018.1 hPa | 0 mm | - | 3 W/m² | - |
| 1777683316 | 2.22° C | 58% | 1018.2 hPa | 0 mm | - | 7 W/m² | - |
| 1777682725 | 2.78° C | 55% | 1018.2 hPa | 0 mm | - | 13 W/m² | - |
| 1777682116 | 3.33° C | 52% | 1018.1 hPa | 0 mm | - | 20 W/m² | - |
| 1777681516 | 3.33° C | 50% | 1018.1 hPa | 0 mm | - | 25 W/m² | - |
| 1777680917 | 3.89° C | 49% | 1018.1 hPa | 0 mm | - | 30 W/m² | - |
| 1777680317 | 3.89° C | 50% | 1018 hPa | 0 mm | - | 35 W/m² | - |
| 1777679717 | 3.89° C | 48% | 1017.9 hPa | 0 mm | - | 41 W/m² | - |
| 1777679117 | 4.44° C | 48% | 1017.9 hPa | 0 mm | - | 50 W/m² | - |
| 1777678517 | 4.44° C | 47% | 1017.9 hPa | 0 mm | - | 70 W/m² | - |
| 1777677919 | 5° C | 48% | 1017.8 hPa | 0 mm | - | 125 W/m² | - |
| 1777677318 | 5.56° C | 48% | 1017.8 hPa | 0 mm | - | 201 W/m² | - |
| 1777676719 | 5.56° C | 47% | 1017.8 hPa | 0 mm | - | 240 W/m² | - |
* Rain latest hour (hover to see other rain measurements)
** Current wind speed in m/s (hover to see current wind gust speed)